GW5385 Weather Reports


time (UTC)temp
C
wind
direction
speed
KPH
gust
KPH
rain 1hr
cm
rain 24hr
cm
rain mn
cm
humidity
%
barometer
mb
20260506081502 -6 295 0.0 0.0 0.00 0.00 0.00 69 1020.7
20260506073055 -6 288 0.0 0.0 0.00 0.00 0.00 65 1021.0
20260506071554 -5 288 0.0 0.0 0.00 0.00 0.00 65 1021.0
20260506061543 -5 260 0.0 0.0 0.00 0.00 0.00 61 1021.3
20260506044533 -3 286 0.0 1.6 0.00 0.00 0.00 57 1021.4
20260506043028 -3 286 1.6 1.6 0.00 0.00 0.00 56 1021.4
20260506041527 -2 293 0.0 1.6 0.00 0.00 0.00 55 1021.5
20260506040035 -2 297 0.0 1.6 0.00 0.00 0.00 52 1021.6
20260506034522 -1 297 0.0 1.6 0.00 0.00 0.00 50 1021.4
20260506033050 -1 357 0.0 1.6 0.00 0.00 0.00 48 1021.4
20260506031547 0 328 0.0 1.6 0.00 0.00 0.00 46 1021.3
20260506030015 2 360 1.6 4.8 0.00 0.00 0.00 42 1021.2
20260506024515 3 18 3.2 4.8 0.00 0.00 0.00 40 1021.3
20260506023056 5 7 3.2 9.7 0.00 0.00 0.00 38 1021.3
20260506021554 6 25 11.3 17.7 0.00 0.00 0.00 36 1021.1
20260506020042 6 22 12.9 19.3 0.00 0.00 0.00 36 1021.0
20260506014544 7 22 16.1 27.4 0.00 0.00 0.00 35 1021.0
20260506013039 7 352 14.5 25.7 0.00 0.00 0.00 34 1021.0
20260506011539 7 25 19.3 29.0 0.00 0.00 0.00 33 1020.9
20260506010047 8 36 20.9 30.6 0.00 0.00 0.00 33 1020.8
20260506004539 8 346 16.1 29.0 0.00 0.00 0.00 32 1020.8
20260506003036 8 22 20.9 32.2 0.00 0.00 0.00 33 1020.7
20260506001635 8 20 22.5 30.6 0.00 0.00 0.00 33 1020.7
20260506000032 9 347 12.9 33.8 0.00 0.00 0.00 32 1020.6
20260505234554 9 16 27.4 40.2 0.00 0.00 0.00 32 1020.7
20260505233037 9 338 12.9 32.2 0.00 0.00 0.00 32 1020.7
20260505231532 9 337 19.3 37.0 0.00 0.00 0.00 32 1020.7
20260505224558 9 12 22.5 32.2 0.00 0.00 0.00 32 1020.7
20260505223055 9 323 19.3 29.0 0.00 0.00 0.00 32 1020.8
20260505221555 9 327 17.7 30.6 0.00 0.00 0.00 31 1020.8
20260505220053 9 327 12.9 32.2 0.00 0.00 0.00 31 1020.7
20260505214613 9 338 19.3 32.2 0.00 0.00 0.00 30 1020.6
20260505213059 9 332 17.7 35.4 0.00 0.00 0.00 32 1020.6
20260505211549 9 352 16.1 37.0 0.00 0.00 0.00 33 1020.7
20260505210056 9 5 24.1 33.8 0.00 0.00 0.00 32 1020.7
20260505204556 9 311 11.3 38.6 0.00 0.00 0.00 34 1020.9
20260505203051 9 328 19.3 35.4 0.00 0.00 0.00 35 1021.0
20260505201545 9 345 22.5 33.8 0.00 0.00 0.00 35 1021.1
20260505200058 8 340 22.5 38.6 0.00 0.00 0.00 35 1021.2
20260505194548 9 4 22.5 35.4 0.00 0.00 0.00 35 1021.2
20260505193010 9 338 19.3 35.4 0.00 0.00 0.00 35 1021.1
20260505191509 8 310 20.9 37.0 0.00 0.00 0.00 33 1021.2
20260505190005 8 10 19.3 40.2 0.00 0.00 0.00 37 1021.3
20260505184505 8 332 20.9 35.4 0.00 0.00 0.00 37 1021.2
20260505183010 8 328 17.7 33.8 0.00 0.00 0.00 37 1021.3
20260505181503 8 350 14.5 30.6 0.00 0.00 0.00 37 1021.3
20260505180109 8 331 14.5 32.2 0.00 0.00 0.00 39 1021.3
20260505174605 8 326 17.7 29.0 0.00 0.00 0.00 40 1021.2
20260505173057 7 303 17.7 33.8 0.00 0.00 0.00 39 1021.3
20260505171556 7 348 16.1 38.6 0.00 0.00 0.00 45 1021.4
20260505170051 7 314 17.7 38.6 0.00 0.00 0.00 43 1021.4
20260505164550 6 347 17.7 30.6 0.00 0.00 0.00 46 1021.5
20260505163052 6 342 17.7 30.6 0.00 0.00 0.00 45 1021.6
20260505161549 6 345 12.9 25.7 0.00 0.00 0.00 51 1021.6
20260505153041 5 356 12.9 20.9 0.00 0.00 0.00 52 1021.8
20260505151535 4 324 8.0 20.9 0.00 0.00 0.00 59 1021.7
20260505124515 1 304 0.0 4.8 0.00 0.00 0.00 74 1021.1
20260505123015 0 303 0.0 4.8 0.00 0.00 0.00 74 1020.9
20260505121514 0 312 0.0 4.8 0.00 0.00 0.00 75 1020.9
20260505120016 -1 323 0.0 1.6 0.00 0.00 0.00 76 1020.8
20260505114507 0 303 0.0 0.0 0.00 0.00 0.00 72 1020.9
20260505113003 0 328 0.0 1.6 0.00 0.00 0.00 68 1020.8
20260505111600 1 342 3.2 9.7 0.00 0.00 0.00 67 1020.8
20260505101547 2 354 6.4 11.3 0.00 0.00 0.00 58 1020.5
20260505100047 2 16 6.4 11.3 0.00 0.00 0.00 59 1020.5
20260505094514 2 15 4.8 6.4 0.00 0.00 0.00 62 1020.4
20260505093023 2 344 3.2 9.7 0.00 0.00 0.00 61 1020.2
20260505091507 2 22 6.4 14.5 0.00 0.00 0.00 60 1020.4
20260505090005 2 30 4.8 8.0 0.00 0.00 0.00 60 1020.2
20260505084505 2 42 1.6 3.2 0.00 0.00 0.00 58 1020.2
20260505083008 2 15 0.0 0.0 0.00 0.00 0.00 58 1020.2